| time (UTC) | temp C | wind direction | speed KPH | gust KPH | rain 1hr cm | rain 24hr cm | rain mn cm | humidity % | barometer mb |
| 20260504081549 | 12 | 267 | 12.9 | 24.1 | 0.00 | 0.00 | 0.00 | 87 | 1007.3 |
| 20260504050015 | 12 | 269 | 12.9 | 30.6 | 0.00 | 0.00 | 0.00 | 88 | 1005.0 |
| 20260504044507 | 12 | 265 | 14.5 | 29.0 | 0.00 | 0.00 | 0.00 | 87 | 1004.9 |
| 20260504043006 | 12 | 232 | 19.3 | 33.8 | 0.00 | 0.00 | 0.00 | 87 | 1004.7 |
| 20260504041600 | 13 | 264 | 14.5 | 30.6 | 0.00 | 0.00 | 0.00 | 87 | 1004.6 |
| 20260504040057 | 13 | 253 | 12.9 | 32.2 | 0.00 | 0.00 | 0.00 | 88 | 1004.6 |
| 20260504034556 | 13 | 229 | 12.9 | 22.5 | 0.00 | 0.00 | 0.00 | 88 | 1004.5 |
| 20260504033059 | 13 | 263 | 11.3 | 29.0 | 0.00 | 0.00 | 0.00 | 88 | 1004.5 |
| 20260504031553 | 13 | 235 | 17.7 | 32.2 | 0.00 | 0.00 | 0.00 | 88 | 1004.5 |
| 20260504030050 | 13 | 235 | 14.5 | 32.2 | 0.00 | 0.00 | 0.00 | 90 | 1004.5 |
| 20260504024552 | 13 | 213 | 9.7 | 20.9 | 0.00 | 0.00 | 0.00 | 89 | 1004.4 |
| 20260504023048 | 14 | 215 | 9.7 | 24.1 | 0.00 | 0.00 | 0.00 | 89 | 1004.4 |
| 20260504021547 | 14 | 224 | 16.1 | 25.7 | 0.00 | 0.00 | 0.00 | 89 | 1004.5 |
| 20260504020125 | 13 | 296 | 9.7 | 20.9 | 0.00 | 0.00 | 0.00 | 90 | 1004.4 |
| 20260504014559 | 13 | 262 | 12.9 | 17.7 | 0.00 | 0.00 | 0.00 | 90 | 1004.4 |
| 20260504013055 | 13 | 201 | 9.7 | 22.5 | 0.00 | 0.00 | 0.00 | 90 | 1004.3 |
| 20260504011545 | 13 | 288 | 16.1 | 29.0 | 0.00 | 0.00 | 0.00 | 90 | 1004.3 |
| 20260504010044 | 13 | 243 | 9.7 | 17.7 | 0.00 | 0.00 | 0.00 | 91 | 1004.3 |
| 20260504004600 | 14 | 266 | 9.7 | 27.4 | 0.00 | 0.00 | 0.00 | 91 | 1004.1 |
| 20260504003040 | 14 | 252 | 11.3 | 29.0 | 0.00 | 0.00 | 0.00 | 91 | 1004.0 |
| 20260504001550 | 14 | 215 | 19.3 | 35.4 | 0.00 | 0.00 | 0.00 | 91 | 1004.0 |
| 20260504000032 | 14 | 200 | 14.5 | 30.6 | 0.00 | 0.00 | 0.00 | 90 | 1003.9 |
| 20260503234531 | 15 | 228 | 14.5 | 27.4 | 0.00 | 0.00 | 0.00 | 90 | 1003.9 |
| 20260503233028 | 15 | 215 | 12.9 | 24.1 | 0.00 | 0.00 | 0.00 | 89 | 1003.9 |
| 20260503231525 | 14 | 193 | 8.0 | 16.1 | 0.00 | 0.00 | 0.00 | 90 | 1003.7 |
| 20260503230023 | 13 | 188 | 1.6 | 9.7 | 0.00 | 0.00 | 0.00 | 89 | 1003.8 |
| 20260503224621 | 13 | 205 | 1.6 | 6.4 | 0.00 | 0.00 | 0.00 | 89 | 1003.8 |
| 20260503223020 | 13 | 256 | 1.6 | 4.8 | 0.00 | 0.00 | 0.00 | 88 | 1003.8 |
| 20260503221517 | 14 | 293 | 0.0 | 4.8 | 0.00 | 0.00 | 0.00 | 87 | 1003.7 |
| 20260503220014 | 14 | 293 | 3.2 | 8.0 | 0.00 | 0.00 | 0.00 | 86 | 1003.9 |
| 20260503214513 | 14 | 252 | 3.2 | 12.9 | 0.00 | 0.00 | 0.00 | 86 | 1004.2 |
| 20260503213013 | 14 | 278 | 3.2 | 14.5 | 0.00 | 0.00 | 0.00 | 86 | 1004.3 |
| 20260503211513 | 14 | 234 | 1.6 | 11.3 | 0.00 | 0.00 | 0.00 | 86 | 1004.0 |
| 20260503210012 | 14 | 286 | 0.0 | 4.8 | 0.00 | 0.00 | 0.00 | 86 | 1003.8 |
| 20260503204511 | 15 | 227 | 0.0 | 6.4 | 0.00 | 0.00 | 0.00 | 85 | 1003.9 |
| 20260503203030 | 15 | 259 | 1.6 | 6.4 | 0.00 | 0.00 | 0.00 | 84 | 1004.0 |
| 20260503201510 | 15 | 25 | 1.6 | 3.2 | 0.00 | 0.00 | 0.00 | 83 | 1004.1 |
| 20260503200012 | 15 | 77 | 1.6 | 6.4 | 0.00 | 0.00 | 0.00 | 83 | 1003.9 |
| 20260503194517 | 15 | 67 | 3.2 | 8.0 | 0.00 | 0.00 | 0.00 | 82 | 1003.9 |
| 20260503193009 | 15 | 69 | 1.6 | 9.7 | 0.00 | 0.00 | 0.00 | 82 | 1004.0 |
| 20260503191508 | 14 | 71 | 4.8 | 8.0 | 0.00 | 0.00 | 0.00 | 82 | 1004.1 |
| 20260503190007 | 14 | 91 | 1.6 | 12.9 | 0.00 | 0.00 | 0.00 | 82 | 1004.3 |
| 20260503184506 | 14 | 103 | 8.0 | 12.9 | 0.00 | 0.00 | 0.00 | 83 | 1004.1 |
| 20260503183005 | 14 | 97 | 8.0 | 14.5 | 0.00 | 0.00 | 0.00 | 84 | 1004.1 |
| 20260503181506 | 14 | 89 | 8.0 | 16.1 | 0.00 | 0.00 | 0.00 | 85 | 1003.9 |
| 20260503180005 | 15 | 102 | 8.0 | 17.7 | 0.00 | 0.00 | 0.00 | 85 | 1003.9 |
| 20260503174504 | 15 | 82 | 9.7 | 17.7 | 0.00 | 0.00 | 0.00 | 87 | 1003.8 |
| 20260503173003 | 15 | 81 | 6.4 | 14.5 | 0.00 | 0.00 | 0.00 | 87 | 1003.9 |
| 20260503171502 | 15 | 148 | 8.0 | 14.5 | 0.00 | 0.00 | 0.00 | 83 | 1004.7 |
| 20260503100109 | 18 | 222 | 3.2 | 9.7 | 0.00 | 0.00 | 0.00 | 71 | 1008.0 |